| time (UTC) | temp F | wind direction | speed MPH | gust MPH | rain 1hr in | rain 24hr in | rain mn in | humidity % | barometer mb |
| 20260505193001 | 49 | 330 | 1.0 | 3.0 | 0.03 | 0.78 | 0.78 | 91 | 1007.8 |
| 20260505191501 | 49 | 26 | 1.0 | 2.0 | 0.06 | 0.78 | 0.78 | 91 | 1007.9 |
| 20260505190004 | 49 | 29 | 1.0 | 3.0 | 0.09 | 0.78 | 0.78 | 91 | 1007.7 |
| 20260505184500 | 49 | 53 | 1.0 | 4.0 | 0.13 | 0.77 | 0.77 | 91 | 1007.9 |
| 20260505183001 | 49 | 352 | 0.0 | 2.0 | 0.14 | 0.75 | 0.75 | 90 | 1008.1 |
| 20260505174500 | 49 | 352 | 0.0 | 0.0 | 0.08 | 0.64 | 0.64 | 87 | 1008.4 |
| 20260505173002 | 49 | 352 | 0.0 | 0.0 | 0.05 | 0.60 | 0.60 | 85 | 1008.7 |
| 20260505171501 | 50 | 352 | 0.0 | 1.0 | 0.06 | 0.59 | 0.59 | 86 | 1008.5 |
| 20260505170004 | 50 | 352 | 0.0 | 2.0 | 0.05 | 0.57 | 0.57 | 87 | 1008.1 |
| 20260505164502 | 50 | 352 | 0.0 | 1.0 | 0.04 | 0.56 | 0.56 | 85 | 1008.4 |
| 20260505163000 | 50 | 352 | 1.0 | 2.0 | 0.04 | 0.55 | 0.55 | 84 | 1008.4 |
| 20260505161501 | 50 | 352 | 0.0 | 2.0 | 0.02 | 0.53 | 0.53 | 83 | 1008.8 |
| 20260505153001 | 51 | 333 | 2.0 | 3.0 | 0.03 | 0.51 | 0.51 | 87 | 1008.6 |
| 20260505151502 | 52 | 334 | 3.0 | 5.0 | 0.05 | 0.51 | 0.51 | 86 | 1008.8 |
| 20260505124500 | 56 | 247 | 10.0 | 14.0 | 0.00 | 0.45 | 0.45 | 90 | 1006.8 |
| 20260505123000 | 56 | 266 | 9.0 | 14.0 | 0.00 | 0.45 | 0.45 | 90 | 1007.0 |
| 20260505121500 | 56 | 246 | 9.0 | 13.0 | 0.00 | 0.45 | 0.45 | 91 | 1006.9 |
| 20260505120004 | 56 | 223 | 7.0 | 10.0 | 0.00 | 0.45 | 0.45 | 91 | 1006.4 |
| 20260505114501 | 55 | 214 | 6.0 | 9.0 | 0.00 | 0.45 | 0.45 | 90 | 1005.9 |
| 20260505113000 | 55 | 240 | 4.0 | 6.0 | 0.00 | 0.45 | 0.45 | 91 | 1005.8 |
| 20260505111501 | 55 | 246 | 5.0 | 8.0 | 0.00 | 0.45 | 0.45 | 91 | 1006.2 |
| 20260505101500 | 55 | 217 | 9.0 | 12.0 | 0.00 | 0.45 | 0.45 | 89 | 1005.5 |
| 20260505100004 | 55 | 217 | 7.0 | 11.0 | 0.00 | 0.45 | 0.45 | 89 | 1005.2 |
| 20260505094500 | 55 | 238 | 8.0 | 12.0 | 0.00 | 0.45 | 0.45 | 88 | 1004.9 |
| 20260505093000 | 55 | 238 | 7.0 | 10.0 | 0.00 | 0.45 | 0.45 | 88 | 1004.6 |
| 20260505091501 | 56 | 254 | 6.0 | 8.0 | 0.00 | 0.45 | 0.45 | 88 | 1004.4 |
| 20260505084500 | 56 | 224 | 6.0 | 11.0 | 0.00 | 0.45 | 0.45 | 86 | 1003.7 |
| 20260505083000 | 56 | 210 | 8.0 | 11.0 | 0.02 | 0.45 | 0.45 | 88 | 1003.5 |
| 20260505081502 | 56 | 167 | 13.0 | 19.0 | 0.03 | 0.45 | 0.45 | 89 | 1003.2 |
| 20260505080002 | 56 | 177 | 14.0 | 20.0 | 0.09 | 0.45 | 0.45 | 89 | 1003.9 |
| 20260505074500 | 56 | 150 | 15.0 | 22.0 | 0.15 | 0.45 | 0.45 | 88 | 1003.1 |
| 20260505072959 | 57 | 248 | 14.0 | 20.0 | 0.20 | 0.42 | 0.42 | 86 | 1005.3 |
| 20260505061459 | 56 | 219 | 4.0 | 6.0 | 0.11 | 0.18 | 0.18 | 90 | 1006.1 |
| 20260505051459 | 58 | 323 | 6.0 | 11.0 | 0.06 | 0.06 | 0.06 | 86 | 1006.0 |
| 20260505041501 | 67 | 236 | 13.0 | 23.0 | 0.00 | 0.00 | 0.00 | 62 | 1002.2 |
| 20260505034503 | 67 | 225 | 10.0 | 14.0 | 0.00 | 0.00 | 0.00 | 62 | 1002.2 |
| 20260505033003 | 67 | 221 | 12.0 | 16.0 | 0.00 | 0.00 | 0.00 | 61 | 1002.2 |
| 20260505031502 | 67 | 234 | 11.0 | 16.0 | 0.00 | 0.00 | 0.00 | 61 | 1002.4 |
| 20260505030005 | 67 | 228 | 11.0 | 15.0 | 0.00 | 0.00 | 0.00 | 62 | 1002.5 |
| 20260505024502 | 67 | 221 | 9.0 | 13.0 | 0.00 | 0.00 | 0.00 | 63 | 1002.6 |
| 20260505023002 | 67 | 219 | 9.0 | 13.0 | 0.00 | 0.00 | 0.00 | 64 | 1002.7 |
| 20260505021502 | 67 | 228 | 10.0 | 15.0 | 0.00 | 0.00 | 0.00 | 63 | 1002.6 |
| 20260505020006 | 67 | 230 | 9.0 | 13.0 | 0.00 | 0.00 | 0.00 | 63 | 1002.7 |
| 20260505014502 | 68 | 231 | 8.0 | 11.0 | 0.00 | 0.00 | 0.00 | 62 | 1002.5 |
| 20260505013003 | 68 | 220 | 8.0 | 12.0 | 0.00 | 0.00 | 0.00 | 60 | 1002.3 |
| 20260505010004 | 69 | 215 | 7.0 | 10.0 | 0.00 | 0.00 | 0.00 | 58 | 1002.1 |
| 20260505004501 | 70 | 211 | 9.0 | 14.0 | 0.00 | 0.00 | 0.00 | 57 | 1001.9 |
| 20260505003002 | 71 | 219 | 12.0 | 18.0 | 0.00 | 0.00 | 0.00 | 54 | 1001.6 |
| 20260505001502 | 71 | 238 | 13.0 | 18.0 | 0.00 | 0.00 | 0.00 | 53 | 1001.6 |
| 20260505000004 | 72 | 240 | 14.0 | 20.0 | 0.00 | 0.00 | 0.00 | 52 | 1001.6 |
| 20260504234502 | 73 | 235 | 16.0 | 25.0 | 0.00 | 0.00 | 0.00 | 50 | 1001.8 |
| 20260504233002 | 73 | 245 | 14.0 | 19.0 | 0.00 | 0.00 | 0.00 | 53 | 1002.1 |
| 20260504231501 | 73 | 243 | 15.0 | 27.0 | 0.00 | 0.00 | 0.00 | 51 | 1002.4 |
| 20260504230005 | 73 | 230 | 16.0 | 23.0 | 0.00 | 0.00 | 0.00 | 58 | 1002.6 |
| 20260504223001 | 73 | 197 | 12.0 | 18.0 | 0.00 | 0.00 | 0.00 | 62 | 1002.7 |
| 20260504221501 | 72 | 229 | 13.0 | 18.0 | 0.00 | 0.00 | 0.00 | 64 | 1003.0 |
| 20260504220004 | 72 | 238 | 13.0 | 21.0 | 0.00 | 0.00 | 0.00 | 63 | 1003.0 |
| 20260504214501 | 71 | 261 | 17.0 | 24.0 | 0.00 | 0.01 | 0.00 | 61 | 1003.1 |
| 20260504213002 | 73 | 203 | 19.0 | 26.0 | 0.00 | 0.01 | 0.00 | 57 | 1003.2 |
| 20260504211501 | 72 | 224 | 20.0 | 28.0 | 0.00 | 0.01 | 0.00 | 57 | 1003.5 |
| 20260504210005 | 71 | 250 | 21.0 | 31.0 | 0.00 | 0.01 | 0.00 | 56 | 1003.7 |
| 20260504204506 | 71 | 257 | 18.0 | 24.0 | 0.00 | 0.01 | 0.00 | 57 | 1003.6 |
| 20260504203001 | 72 | 258 | 19.0 | 25.0 | 0.00 | 0.01 | 0.00 | 55 | 1003.6 |
| 20260504201502 | 72 | 257 | 18.0 | 27.0 | 0.00 | 0.01 | 0.00 | 52 | 1003.8 |